Time,TemperatureF,DewpointF,PressureIn,WindDirection,WindDirectionDegrees,WindSpeedMPH,WindSpeedGustMPH,Humidity,HourlyPrecipIn,Conditions,Clouds,dailyrainin,SolarRadiationWatts/m^2,SoftwareType,DateUTC
2013-11-05 00:22:00,35.0,28.0,-100.00,NNW,344,0.0,4.0,75,0.00,,,0.00,0.000000,,2013-11-05 09:22:00,
2013-11-05 00:33:00,35.0,28.0,-100.00,NNW,344,0.0,4.0,75,0.00,,,0.00,0.000000,,2013-11-05 09:33:00,
2013-11-05 00:43:00,35.0,28.0,-100.00,NNW,344,0.0,4.0,75,0.00,,,0.00,0.000000,,2013-11-05 09:43:00,
2013-11-05 00:53:00,35.0,28.0,-100.00,NNW,344,0.0,4.0,75,0.00,,,0.00,0.000000,,2013-11-05 09:53:00,
2013-11-05 01:23:00,34.0,27.0,-100.00,NNE,25,3.0,6.0,75,0.00,,,0.00,0.000000,,2013-11-05 10:23:00,
2013-11-05 01:33:00,34.0,27.0,-100.00,NNE,25,3.0,6.0,75,0.00,,,0.00,0.000000,,2013-11-05 10:33:00,
2013-11-05 01:42:00,34.0,27.0,-100.00,NNE,25,3.0,6.0,75,0.00,,,0.00,0.000000,,2013-11-05 10:42:00,
2013-11-05 01:53:00,34.0,27.0,-100.00,NNE,25,3.0,6.0,75,0.00,,,0.00,0.000000,,2013-11-05 10:53:00,
2013-11-05 02:22:00,35.0,29.0,-100.00,NNE,27,3.0,6.0,78,0.00,,,0.00,0.000000,,2013-11-05 11:22:00,
2013-11-05 02:33:00,35.0,29.0,-100.00,NNE,27,3.0,6.0,78,0.00,,,0.00,0.000000,,2013-11-05 11:33:00,
2013-11-05 02:42:00,35.0,29.0,-100.00,NNE,27,3.0,6.0,78,0.00,,,0.00,0.000000,,2013-11-05 11:42:00,
2013-11-05 02:52:00,35.0,29.0,-100.00,NNE,27,3.0,6.0,78,0.00,,,0.00,0.000000,,2013-11-05 11:52:00,
2013-11-05 03:22:00,33.0,26.0,-100.00,NE,56,1.0,4.0,74,0.00,,,0.00,0.000000,,2013-11-05 12:22:00,
2013-11-05 03:31:00,33.0,26.0,-100.00,NE,56,1.0,4.0,74,0.00,,,0.00,0.000000,,2013-11-05 12:31:00,
2013-11-05 03:42:00,33.0,26.0,-100.00,NE,56,1.0,4.0,74,0.00,,,0.00,0.000000,,2013-11-05 12:42:00,
2013-11-05 03:52:00,33.0,26.0,-100.00,NE,56,1.0,4.0,74,0.00,,,0.00,0.000000,,2013-11-05 12:52:00,
2013-11-05 04:21:00,32.0,24.0,-100.00,SSW,201,2.0,5.0,72,0.00,,,0.00,0.000000,,2013-11-05 13:21:00,
2013-11-05 04:32:00,32.0,24.0,-100.00,SSW,201,2.0,5.0,72,0.00,,,0.00,0.000000,,2013-11-05 13:32:00,
2013-11-05 04:42:00,32.0,24.0,-100.00,SSW,201,2.0,5.0,72,0.00,,,0.00,0.000000,,2013-11-05 13:42:00,
2013-11-05 04:52:00,32.0,24.0,-100.00,SSW,201,2.0,5.0,72,0.00,,,0.00,0.000000,,2013-11-05 13:52:00,
2013-11-05 05:22:00,33.0,27.0,-100.00,SE,142,1.0,4.0,78,0.00,,,0.00,0.000000,,2013-11-05 14:22:00,
2013-11-05 05:32:00,33.0,27.0,-100.00,SE,142,1.0,4.0,78,0.00,,,0.00,0.000000,,2013-11-05 14:32:00,
2013-11-05 05:42:00,33.0,27.0,-100.00,SE,142,1.0,4.0,78,0.00,,,0.00,0.000000,,2013-11-05 14:42:00,
2013-11-05 05:52:00,33.0,27.0,-100.00,SE,142,1.0,4.0,78,0.00,,,0.00,0.000000,,2013-11-05 14:52:00,
2013-11-05 06:21:00,34.0,27.0,-100.00,SSW,213,2.0,4.0,74,0.00,,,0.00,0.000000,,2013-11-05 15:21:00,
2013-11-05 06:33:00,34.0,27.0,-100.00,SSW,213,2.0,4.0,74,0.00,,,0.00,0.000000,,2013-11-05 15:33:00,
2013-11-05 06:43:00,34.0,27.0,-100.00,SSW,213,2.0,4.0,74,0.00,,,0.00,0.000000,,2013-11-05 15:43:00,
2013-11-05 06:53:00,34.0,27.0,-100.00,SSW,213,2.0,4.0,74,0.00,,,0.00,0.000000,,2013-11-05 15:53:00,
2013-11-05 07:23:00,32.0,26.0,-100.00,South,189,4.0,5.0,78,0.00,,,0.00,0.000000,,2013-11-05 16:23:00,
2013-11-05 07:32:00,32.0,26.0,-100.00,South,189,4.0,5.0,78,0.00,,,0.00,0.000000,,2013-11-05 16:32:00,
2013-11-05 07:43:00,32.0,26.0,-100.00,South,189,4.0,5.0,78,0.00,,,0.00,0.000000,,2013-11-05 16:43:00,
2013-11-05 07:52:00,32.0,26.0,-100.00,South,189,4.0,5.0,78,0.00,,,0.00,0.000000,,2013-11-05 16:52:00,
2013-11-05 08:22:00,32.0,27.0,-100.00,East,83,2.0,5.0,82,0.00,,,0.00,0.000000,,2013-11-05 17:22:00,
2013-11-05 08:32:00,32.0,27.0,-100.00,East,83,2.0,5.0,82,0.00,,,0.00,0.000000,,2013-11-05 17:32:00,
2013-11-05 08:42:00,32.0,27.0,-100.00,East,83,2.0,5.0,82,0.00,,,0.00,0.000000,,2013-11-05 17:42:00,
2013-11-05 08:52:00,32.0,27.0,-100.00,East,83,2.0,5.0,82,0.00,,,0.00,0.000000,,2013-11-05 17:52:00,
2013-11-05 09:22:00,34.0,25.0,-100.00,ESE,121,1.0,3.0,70,0.00,,,0.00,2.000000,,2013-11-05 18:22:00,
2013-11-05 09:33:00,34.0,25.0,-100.00,ESE,121,1.0,3.0,70,0.00,,,0.00,2.000000,,2013-11-05 18:33:00,
2013-11-05 09:42:00,34.0,25.0,-100.00,ESE,121,1.0,3.0,70,0.00,,,0.00,2.000000,,2013-11-05 18:42:00,
2013-11-05 09:52:00,34.0,25.0,-100.00,ESE,121,1.0,3.0,70,0.00,,,0.00,2.000000,,2013-11-05 18:52:00,
2013-11-05 10:22:00,33.0,24.0,-100.00,NE,39,1.0,4.0,69,0.00,,,0.00,14.000000,,2013-11-05 19:22:00,
2013-11-05 10:32:00,33.0,24.0,-100.00,NE,39,1.0,4.0,69,0.00,,,0.00,14.000000,,2013-11-05 19:32:00,
2013-11-05 10:42:00,33.0,24.0,-100.00,NE,39,1.0,4.0,69,0.00,,,0.00,14.000000,,2013-11-05 19:42:00,
2013-11-05 10:52:00,33.0,24.0,-100.00,NE,39,1.0,4.0,69,0.00,,,0.00,14.000000,,2013-11-05 19:52:00,
2013-11-05 11:22:00,35.0,26.0,-100.00,NNE,17,3.0,6.0,69,0.00,,,0.00,42.000000,,2013-11-05 20:22:00,
2013-11-05 11:32:00,35.0,26.0,-100.00,NNE,17,3.0,6.0,69,0.00,,,0.00,42.000000,,2013-11-05 20:32:00,
2013-11-05 11:42:00,35.0,26.0,-100.00,NNE,17,3.0,6.0,69,0.00,,,0.00,42.000000,,2013-11-05 20:42:00,
2013-11-05 11:52:00,35.0,26.0,-100.00,NNE,17,3.0,6.0,69,0.00,,,0.00,42.000000,,2013-11-05 20:52:00,
2013-11-05 12:22:00,36.0,23.0,-100.00,North,10,4.0,12.0,60,0.00,,,0.00,64.000000,,2013-11-05 21:22:00,
2013-11-05 12:33:00,36.0,23.0,-100.00,North,10,4.0,12.0,60,0.00,,,0.00,64.000000,,2013-11-05 21:33:00,
2013-11-05 12:44:00,36.0,23.0,-100.00,North,10,4.0,12.0,60,0.00,,,0.00,64.000000,,2013-11-05 21:44:00,
2013-11-05 12:54:00,36.0,23.0,-100.00,North,10,4.0,12.0,60,0.00,,,0.00,64.000000,,2013-11-05 21:54:00,
2013-11-05 13:23:00,37.0,22.0,-100.00,North,9,5.0,12.0,54,0.00,,,0.00,103.000000,,2013-11-05 22:23:00,
2013-11-05 13:34:00,37.0,22.0,-100.00,North,9,5.0,12.0,54,0.00,,,0.00,103.000000,,2013-11-05 22:34:00,
2013-11-05 13:43:00,37.0,22.0,-100.00,North,9,5.0,12.0,54,0.00,,,0.00,103.000000,,2013-11-05 22:43:00,
2013-11-05 13:53:00,37.0,22.0,-100.00,North,9,5.0,12.0,54,0.00,,,0.00,103.000000,,2013-11-05 22:53:00,
2013-11-05 14:22:00,36.0,21.0,-100.00,North,10,4.0,14.0,53,0.00,,,0.00,106.000000,,2013-11-05 23:22:00,
2013-11-05 14:34:00,36.0,21.0,-100.00,North,10,4.0,14.0,53,0.00,,,0.00,106.000000,,2013-11-05 23:34:00,
2013-11-05 14:42:00,36.0,21.0,-100.00,North,10,4.0,14.0,53,0.00,,,0.00,106.000000,,2013-11-05 23:42:00,
2013-11-05 14:53:00,36.0,21.0,-100.00,North,10,4.0,14.0,53,0.00,,,0.00,106.000000,,2013-11-05 23:53:00,
2013-11-05 15:22:00,35.0,20.0,-100.00,NNE,12,5.0,12.0,53,0.00,,,0.00,83.000000,,2013-11-06 00:22:00,
2013-11-05 15:32:00,35.0,20.0,-100.00,NNE,12,5.0,12.0,53,0.00,,,0.00,83.000000,,2013-11-06 00:32:00,
2013-11-05 15:42:00,35.0,20.0,-100.00,NNE,12,5.0,12.0,53,0.00,,,0.00,83.000000,,2013-11-06 00:42:00,
2013-11-05 15:52:00,35.0,20.0,-100.00,NNE,12,5.0,12.0,53,0.00,,,0.00,83.000000,,2013-11-06 00:52:00,
2013-11-05 16:21:00,33.0,19.0,-100.00,North,2,3.0,15.0,55,0.00,,,0.00,50.000000,,2013-11-06 01:21:00,
2013-11-05 16:32:00,33.0,19.0,-100.00,North,2,3.0,15.0,55,0.00,,,0.00,50.000000,,2013-11-06 01:32:00,
2013-11-05 16:42:00,33.0,19.0,-100.00,North,2,3.0,15.0,55,0.00,,,0.00,50.000000,,2013-11-06 01:42:00,
2013-11-05 16:52:00,33.0,19.0,-100.00,North,2,3.0,15.0,55,0.00,,,0.00,50.000000,,2013-11-06 01:52:00,
2013-11-05 17:23:00,31.0,18.0,-100.00,NNE,15,4.0,9.0,58,0.00,,,0.00,14.000000,,2013-11-06 02:23:00,
2013-11-05 17:32:00,31.0,18.0,-100.00,NNE,15,4.0,9.0,58,0.00,,,0.00,14.000000,,2013-11-06 02:32:00,
2013-11-05 17:42:00,31.0,18.0,-100.00,NNE,15,4.0,9.0,58,0.00,,,0.00,14.000000,,2013-11-06 02:42:00,
2013-11-05 17:52:00,31.0,18.0,-100.00,NNE,15,4.0,9.0,58,0.00,,,0.00,14.000000,,2013-11-06 02:52:00,
2013-11-05 18:22:00,30.0,17.0,-100.00,North,11,4.0,9.0,58,0.00,,,0.00,0.000000,,2013-11-06 03:22:00,
2013-11-05 18:34:00,30.0,17.0,-100.00,North,11,4.0,9.0,58,0.00,,,0.00,0.000000,,2013-11-06 03:34:00,
2013-11-05 18:43:00,30.0,17.0,-100.00,North,11,4.0,9.0,58,0.00,,,0.00,0.000000,,2013-11-06 03:43:00,
2013-11-05 18:54:00,30.0,17.0,-100.00,North,11,4.0,9.0,58,0.00,,,0.00,0.000000,,2013-11-06 03:54:00,
2013-11-05 19:24:00,30.0,16.0,-100.00,NNE,15,5.0,11.0,56,0.00,,,0.00,0.000000,,2013-11-06 04:24:00,
2013-11-05 19:34:00,30.0,16.0,-100.00,NNE,15,5.0,11.0,56,0.00,,,0.00,0.000000,,2013-11-06 04:34:00,
2013-11-05 19:43:00,30.0,16.0,-100.00,NNE,15,5.0,11.0,56,0.00,,,0.00,0.000000,,2013-11-06 04:43:00,
2013-11-05 19:53:00,30.0,16.0,-100.00,NNE,15,5.0,11.0,56,0.00,,,0.00,0.000000,,2013-11-06 04:53:00,
2013-11-05 20:23:00,29.0,16.0,-100.00,North,7,5.0,11.0,57,0.00,,,0.00,0.000000,,2013-11-06 05:23:00,
2013-11-05 20:34:00,29.0,16.0,-100.00,North,7,5.0,11.0,57,0.00,,,0.00,0.000000,,2013-11-06 05:34:00,
2013-11-05 20:44:00,29.0,16.0,-100.00,North,7,5.0,11.0,57,0.00,,,0.00,0.000000,,2013-11-06 05:44:00,
2013-11-05 20:53:00,29.0,16.0,-100.00,North,7,5.0,11.0,57,0.00,,,0.00,0.000000,,2013-11-06 05:53:00,
2013-11-05 21:22:00,27.0,14.0,-100.00,NNE,13,4.0,8.0,58,0.00,,,0.00,0.000000,,2013-11-06 06:22:00,
2013-11-05 21:32:00,27.0,14.0,-100.00,NNE,13,4.0,8.0,58,0.00,,,0.00,0.000000,,2013-11-06 06:32:00,
2013-11-05 21:42:00,27.0,14.0,-100.00,NNE,13,4.0,8.0,58,0.00,,,0.00,0.000000,,2013-11-06 06:42:00,
2013-11-05 21:52:00,27.0,14.0,-100.00,NNE,13,4.0,8.0,58,0.00,,,0.00,0.000000,,2013-11-06 06:52:00,
2013-11-05 22:21:00,26.0,13.0,-100.00,NW,312,2.0,8.0,58,0.00,,,0.00,0.000000,,2013-11-06 07:21:00,
2013-11-05 22:32:00,26.0,13.0,-100.00,NW,312,2.0,8.0,58,0.00,,,0.00,0.000000,,2013-11-06 07:32:00,
2013-11-05 22:42:00,26.0,13.0,-100.00,NW,312,2.0,8.0,58,0.00,,,0.00,0.000000,,2013-11-06 07:42:00,
2013-11-05 22:52:00,26.0,13.0,-100.00,NW,312,2.0,8.0,58,0.00,,,0.00,0.000000,,2013-11-06 07:52:00,
2013-11-05 23:22:00,27.0,13.0,-100.00,NNE,23,4.0,10.0,56,0.00,,,0.00,0.000000,,2013-11-06 08:22:00,
2013-11-05 23:32:00,27.0,13.0,-100.00,NNE,23,4.0,10.0,56,0.00,,,0.00,0.000000,,2013-11-06 08:32:00,
2013-11-05 23:42:00,27.0,13.0,-100.00,NNE,23,4.0,10.0,56,0.00,,,0.00,0.000000,,2013-11-06 08:42:00,
2013-11-05 23:52:00,27.0,13.0,-100.00,NNE,23,4.0,10.0,56,0.00,,,0.00,0.000000,,2013-11-06 08:52:00,